Regional Weather Roundup
Issued by NWS Little Rock, AR

Home | Current Version | Previous Version | Graphics & Text | Print | Product List | Glossary On
Versions: 1 2 3 4 5 6 7 8 9 10 11 12 13 14 15 16 17 18 19 20 21 22 23 24 25 26 27 28 29 30 31 32
000
ASUS44 KLZK 230305
RWRLZK

WEATHER ROUNDUP FOR ARKANSAS
NATIONAL WEATHER SERVICE LITTLE ROCK AR
900 PM CST SUN JAN 22 2017

NOTE: "FAIR" INDICATES FEW OR NO CLOUDS BELOW 12,000 FEET WITH NO
SIGNIFICANT WEATHER AND/OR OBSTRUCTIONS TO VISIBILITY.

ARZ001-003-010-029-230400-
NORTHWEST ARKANSAS

CITY           SKY/WX    TMP DP  RH WIND       PRES   REMARKS
FAYETTEVILLE   MOCLDY    40  36  86 NW14      29.79R
FORT SMITH     CLEAR     49  39  68 NW12      29.79R
HARRISON       LGT RAIN  43  40  89 NW13G21   29.74R
BENTONVILLE    CLOUDY   N/A N/A N/A N16       29.81R
ROGERS         CLOUDY    38  36  92 NW13G21   29.81R FOG
SILOAM SPGS    CLOUDY    37  32  81 N15G23    29.82R
HIGHFILL       CLOUDY    37  34  89 NW13G21   29.81R
SPRINGDALE     CLOUDY    41  37  87 NW12G18   29.80R
$$

ARZ004-005-016-230400-
NORTH CENTRAL ARKANSAS

CITY           SKY/WX    TMP DP  RH WIND       PRES   REMARKS
BATESVILLE     CLOUDY    48  41  76 W10       29.63R
FLIPPIN        CLOUDY    46  37  71 NW8       29.70R
MTN HOME       CLOUDY    45  41  86 N6        29.70R
$$

ARZ040-041-230400-
WEST CENTRAL ARKANSAS

CITY           SKY/WX    TMP DP  RH WIND       PRES   REMARKS
MENA           CLOUDY    52  39  62 NW17G28   29.76R
MOUNT IDA      CLOUDY    50  42  74 VRB6      29.72R
$$

ARZ009-017-025-026-028-230400-
NORTHEAST ARKANSAS

CITY           SKY/WX    TMP DP  RH WIND       PRES   REMARKS
CORNING        MOCLDY    54  46  76 NW16      29.56R
JONESBORO      MOCLDY    55  48  77 N18G31    29.52R
WALNUT RIDGE   CLOUDY    52  41  66 NW22      29.56R
BLYTHEVILLE    CLOUDY    54  51  90 N26G36    29.48R
$$

ARZ022-023-033-042-044-230400-
CENTRAL ARKANSAS

CITY           SKY/WX    TMP DP  RH WIND       PRES   REMARKS
LITTLE ROCK    CLOUDY    52  46  80 NW16G26   29.63R
N LITTLE ROCK    N/A     51  46  83 N13G26    29.64R
JACKSONVILLE   CLOUDY    53  47  82 NW13G18   29.62R
SEARCY         CLOUDY    51  45  79 NW13G20   29.62R
HOT SPRINGS    CLOUDY    53  45  74 NW13G23   29.69R
RUSSELLVILLE   CLOUDY    51  43  74 NW12G21   29.70R
CLINTON        CLOUDY    50  45  81 NW14G29   29.66R
$$

ARZ036-230400-
EAST ARKANSAS

CITY           SKY/WX    TMP DP  RH WIND       PRES   REMARKS
WEST MEMPHIS   CLOUDY    54  54 100 N13G23    29.46R
$$

ARZ050-053-066-070-073-230400-
SOUTHWEST ARKANSAS

CITY           SKY/WX    TMP DP  RH WIND       PRES   REMARKS
ARKADELPHIA    CLOUDY    55  46  71 NW13G22   29.70R
CAMDEN         CLOUDY    55  45  67 NW13G21   29.68R
TEXARKANA      CLEAR     50  42  74 NW15G22   29.75R
EL DORADO        N/A    N/A N/A N/A MISG      29.68R
DE QUEEN       CLEAR     50  39  66 NW6       29.76R
$$

ARZ056-057-069-230400-
SOUTHEAST ARKANSAS

CITY           SKY/WX    TMP DP  RH WIND       PRES   REMARKS
PINE BLUFF     CLOUDY    53  47  79 NW17G29   29.60R
STUTTGART      CLOUDY    52  43  71 NW23G29   29.59R
MONTICELLO     CLOUDY    55  49  80 NW13G26   29.57R

$$






USA.gov is the U.S. government's official web portal to all federal, state and local government web resources and services.